CAPE
3134 3398 3339 3592 3576 3779 3834 3757 3641 3543 3477 3358 3083 3091 3028 2950 2798 2760 2759 2802 2786 2769 2789 2855 2913 2877 2893 2899 2913 2894 2887 2832 2694 2622 2649 2174 2145 2035 1820 1976 2094 2164 2248 2122 2053 2130 2321 2311 2267 2180 2065 2234 2210 1844 1736 1853 1750 1596 1234 924 1104 1356 1326 1260 1163 1167 1002 995 967 836 708 732 794 790 844 660 548 288 144 93 250 225 150 164 192
3234 3444 3307 3523 3551 3737 3865 3687 3613 3484 3535 3474 3210 3125 2974 3013 2822 2799 2854 2753 2823 2806 2843 2882 2902 2935 2918 2872 2872 2919 2859 2774 2745 2717 2640 2301 2357 2426 2308 2316 2261 2322 2233 2164 2283 2365 2480 2358 2245 2278 2238 2205 2172 1936 1781 1459 1341 1417 1579 1698 1676 1413 1303 1250 1178 1118 1031 1070 990 916 875 821 812 598 502 445 396 502 431 378 415 230 172 211 263
3416 3488 3359 3526 3721 3806 3784 3811 3715 3600 3546 3452 3288 3088 2938 2981 2886 2961 2930 2902 2834 2871 2884 2911 2951 2956 2944 2912 2915 2848 2736 2805 2756 2711 2672 2482 2364 2202 2241 2285 2327 2343 2353 2374 2431 2396 2499 2165 2082 2264 2455 2346 2238 2172 2076 2016 1933 1841 1727 1548 1353 1386 1418 1371 1349 1261 1268 1313 1235 1162 1089 915 791 799 680 650 562 528 643 544 470 434 272 412 401
3464 3432 3397 3725 3775 3779 3808 3728 3571 3696 3594 3553 3362 3064 3005 2945 3045 2989 2997 2864 2844 2910 2951 2962 2998 2970 2928 2882 2865 2864 2886 2862 2824 2724 2570 2515 2452 2361 2291 2204 2324 2284 2287 2418 2451 2302 2334 2210 2091 2178 2320 2309 2280 2162 2078 1989 1967 1919 1710 1594 1609 1542 1496 1343 1268 1106 1044 1043 1005 837 886 470 658 614 640 605 750 769 826 635 562 545 501 413 424
3405 3404 3480 3710 3707 3821 3837 3757 3746 3779 3612 3562 3394 3119 3204 3011 3099 3039 3029 2897 2797 2892 2964 2963 3007 2952 2938 2918 2914 2898 2985 2872 2738 2691 2571 2322 2274 2239 2255 2310 2418 2474 2457 2492 2494 2320 2407 2163 2135 2206 2144 2080 2115 2129 2069 1979 1866 1899 1844 1845 1788 1722 1593 1562 1426 1291 1006 1052 981 950 420 514 475 638 540 574 660 670 769 763 693 587 594 544 444
3421 3407 3513 3633 3654 3826 3817 3828 3772 3751 3711 3661 3478 3175 3126 3159 3193 3121 3032 3015 2907 2908 2914 2990 2941 2923 2946 2921 2950 2952 2900 2730 2735 2697 2597 2354 2243 2334 2279 2406 2528 2513 2585 2578 2562 2397 2477 2270 2174 2242 2193 2160 2115 2123 1967 1993 1920 1785 1688 1603 1686 1786 1814 1738 1651 1585 1412 952 983 862 507 679 638 591 730 681 613 604 585 686 712 667 574 600 508
3482 3445 3459 3522 3634 3797 3807 3776 3721 3751 3580 3663 3402 3284 3206 3283 3207 3201 3156 3004 3016 2820 2834 2901 2837 2872 2898 2950 2951 2942 2885 2836 2728 2615 2549 2302 2364 2313 2373 2497 2603 2628 2629 2608 2608 2455 2499 2341 2400 2365 2134 2232 2240 2090 2087 2080 1966 1956 1856 1759 1734 1667 1694 1773 1923 1891 1685 1924 944 764 502 658 770 568 703 710 659 742 741 738 762 709 682 674 584
3567 3452 3391 3464 3578 3853 3886 3775 3747 3778 3821 3565 3502 3440 3414 3326 3272 3290 3247 3140 3026 2939 2858 2804 2874 2852 2876 2906 2880 2826 2863 2753 2625 2570 2595 2402 2316 2314 2408 2648 2670 2690 2593 2640 2603 2488 2433 2286 2187 2207 2181 2372 2317 2304 2242 2234 2288 2235 2253 2075 2336 2163 2183 1974 1589 1266 1487 779 743 389 305 569 626 608 794 760 817 938 851 935 856 783 852 706 633
3461 3453 3344 3369 3578 3900 3815 3775 3758 3835 3803 3693 3446 3458 3442 3316 3314 3318 3270 3167 3086 3003 2914 2947 2943 2940 2976 2955 2868 2803 2842 2730 2630 2603 2560 2448 2289 2392 2587 2696 2671 2777 2768 2624 2575 2532 2512 2376 2430 2441 2517 2569 2474 2310 2284 2293 2156 2288 2335 2372 2363 2466 2523 2572 2443 1968 1594 894 412 176 376 676 617 617 841 830 916 944 1007 973 835 868 764 812 718
3395 3428 3444 3360 3599 3914 3805 3802 3703 3722 3787 3662 3586 3488 3419 3404 3397 3353 3277 3225 3002 3036 2953 2991 3006 2988 2976 3003 2922 2864 2799 2666 2622 2508 2479 2269 2338 2451 2565 2690 2743 2847 2916 2774 2641 2697 2533 2395 2332 2353 2241 2302 2163 1930 1767 1783 1586 1313 1446 1230 1463 1436 2008 2374 2616 2152 850 289 191 211 579 1090 872 845 838 927 986 963 999 917 1026 820 784 834 695
3478 3536 3466 3430 3747 4066 3793 3729 3686 3726 3829 3646 3592 3496 3426 3411 3387 3282 3295 3206 3159 3060 3020 3011 3044 2984 2971 2989 3005 2871 2735 2610 2587 2488 2419 2217 2297 2465 2544 2750 2854 2876 2890 2778 2647 2579 2466 2109 2017 2043 1968 1846 1707 1618 1587 1459 1470 1359 1226 1655 1348 1618 1605 1860 1839 2477 1081 626 145 282 1229 1358 1025 1061 1249 1289 1230 1149 1109 1196 1084 962 852 890 788
3502 3572 3514 3517 4111 3945 3782 3675 3656 3732 3584 3734 3601 3510 3430 3454 3332 3288 3299 3142 3092 3024 3081 3087 3023 2988 3010 3033 2981 2870 2710 2642 2530 2467 2398 2272 2224 2390 2536 2728 2955 3000 2968 2778 2835 2598 2376 2075 1890 1657 1573 1530 1540 1589 1512 1321 1156 1193 1096 1164 1235 1689 1710 1610 718 806 578 570 721 1152 1356 1250 1192 1174 1376 1250 1194 1100 1113 1198 1057 956 816 782 722
3553 3635 3624 3664 3844 3899 3744 3683 3652 3753 3648 3565 3620 3574 3531 3460 3351 3306 3376 3220 3143 3133 3118 3087 3039 3028 3013 3001 2889 2870 2756 2644 2540 2390 2223 2218 2319 2362 2406 2710 2954 3009 3044 2946 2904 2607 2301 2211 1855 1364 1330 1321 1319 1424 1439 1540 1438 1522 1287 1382 1522 1672 1592 1963 714 890 954 1143 1371 1301 1280 1302 1254 1342 1268 1295 1361 1315 1230 1130 1088 1007 918 904 853
3600 3703 3748 3881 3777 4090 3839 3717 3654 3660 3649 3632 3538 3504 3469 3399 3347 3375 3308 3156 3137 3114 3092 3028 3031 3026 3014 2958 2926 2945 2874 2643 2540 2409 2205 2220 2304 2406 2521 2660 2850 2943 2974 2999 2779 2424 2262 2067 1642 1366 1366 1454 1410 1481 1581 1613 1577 1560 1470 1556 1490 1481 1801 2227 1055 856 851 948 1048 1216 1388 1472 1335 1406 1537 1412 1363 1213 1097 1067 1039 1055 981 923 899
3567 3808 3902 3828 3922 3893 4006 3792 3683 3642 3610 3516 3423 3317 3276 3252 3253 3208 3092 3080 3046 3002 2986 2986 3006 3000 2958 2922 2894 2846 2742 2680 2509 2400 2282 2146 2125 2389 2556 2647 2766 2871 2904 2810 2601 2355 2122 1758 1586 1452 1414 1529 1493 1596 1737 1729 1691 1780 1727 1756 1550 1514 1099 871 1161 949 862 957 1289 1552 1544 1550 1716 1618 1452 1372 1346 1296 1210 1206 1149 1113 958 969 910
3661 3932 3943 3869 3920 3912 3771 3944 3750 3728 3644 3567 3468 3385 3288 3172 3137 3080 3054 3006 2935 2917 2930 2939 2952 2914 2819 2768 2750 2647 2595 2604 2436 2320 2242 2098 2099 2325 2559 2630 2730 2822 2915 2604 2440 2179 1887 1736 1490 1442 1418 1269 1590 1786 1646 2038 1873 1987 2004 1738 1420 1176 1515 783 782 972 909 1134 1378 1490 1602 1848 1905 1828 1651 1619 1479 1358 1346 1396 1360 1221 1142 1027 901
3829 3952 3912 3926 3862 3844 3769 3729 3832 3862 3745 3663 3534 3379 3222 3137 3086 3049 3020 2957 2895 2858 2900 2920 2888 2792 2720 2696 2640 2555 2485 2470 2368 2213 2137 2097 2119 2271 2477 2586 2715 2789 2728 2362 2240 2054 1914 1738 1536 1468 1696 1420 1597 1965 1992 1973 2336 2169 1500 1263 1380 1120 1022 832 868 986 959 1121 1370 1468 1791 1966 1931 1888 1836 1778 1625 1508 1451 1400 1279 1221 1169 1056 984
3842 3859 3935 3912 3861 3812 3746 3678 3817 3670 3554 3688 3520 3325 3241 3150 3094 3054 3019 2967 2915 2877 2876 2912 2834 2713 2682 2655 2625 2564 2448 2363 2236 2076 1996 2068 2100 2279 2475 2546 2581 2658 2564 2304 2075 1991 1906 1672 1586 1477 1438 1705 1484 1633 2187 2028 2036 2317 1130 1160 1168 1055 1066 701 824 944 833 1555 1313 1734 1989 1943 1971 1913 1961 1874 1744 1568 1214 1201 1299 1249 1175 1037 739
3686 3778 3863 3925 3810 3768 3743 3622 3654 3521 3499 3322 3233 3402 3375 3283 3209 3112 3099 3072 3013 2950 2934 2898 2823 2725 2678 2667 2633 2536 2425 2293 2158 1985 1906 2000 2049 2248 2419 2539 2568 2521 2464 2206 1988 1910 1888 1774 1668 1602 1575 1620 1760 2019 2114 2450 1750 1288 1371 1192 1262 1249 641 1014 993 1124 1278 1128 1486 1863 1972 2148 1984 2038 1948 1934 1829 1718 1525 1363 1245 1193 1098 880 731
3643 3726 3807 3813 3790 3782 3741 3633 3474 3406 3353 3142 3077 3115 3230 3334 3308 3240 3162 3121 3170 3087 3023 2946 2882 2763 2714 2631 2570 2516 2373 2174 2090 1938 1915 1924 1987 2012 2310 2429 2515 2494 2277 2119 1981 1975 1876 1851 1712 1632 1599 1783 1701 2110 2175 1896 1696 1010 1060 1115 1396 1486 735 751 841 830 1038 948 1452 1680 2131 2225 2161 2121 2080 1955 1798 1625 1441 1237 1080 895 939 752 727
3586 3713 3705 3744 3779 3769 3717 3570 3427 3355 3181 3060 3015 3024 3144 3362 3287 3276 3255 3140 3092 3054 2978 2975 2772 2729 2605 2608 2446 1870 1992 1882 1909 1750 1868 1858 1768 2005 2208 2375 2422 2430 2264 2054 1949 1964 1981 1840 1754 1813 1760 1769 1903 2145 1643 1224 1261 653 683 1391 1418 10 0 700 790 881 959 1432 1561 1773 2503 2270 2249 2240 2202 1896 1721 1642 1598 1338 1074 810 657 620 530
3450 3513 3565 3650 3657 3699 3675 3527 3372 3242 3084 3002 2961 2919 3163 3172 3058 3076 2939 2911 2990 2961 2722 2657 2733 2438 2472 2363 1877 1824 1776 1729 1773 1969 1910 1769 1698 2037 2125 2289 2317 2336 2213 1951 1941 2020 1878 1830 1700 1810 1892 1797 1995 1125 280 92 230 306 630 798 214 0 0 0 592 858 1107 1126 1505 2076 2674 2375 2304 2254 1986 1830 1724 1703 1501 1320 915 688 558 512 397
3249 3343 3447 3531 3543 3613 3564 3436 3325 3164 3019 2962 2930 2887 3058 2883 2892 2900 2872 2930 2850 2838 2597 2610 2352 2235 2158 1971 1690 1725 1665 1663 1718 1785 1799 1633 1726 1733 1976 2168 2262 2153 2024 1974 1914 1880 1853 1649 1719 1661 1786 1991 1228 134 2 0 0 22 65 0 0 0 0 0 0 786 836 947 1400 2427 2566 2437 2399 2274 2000 1851 1750 1735 1646 1320 960 803 644 362 226
3133 3205 3324 3454 3508 3498 3445 3382 3283 3137 2994 2938 2865 2858 2859 2771 2750 2738 2767 2772 2770 2536 2442 2344 2138 2076 1996 1762 1595 1635 1584 1606 2102 1996 1833 1506 1668 1638 1708 1990 2183 2068 1983 2035 1987 1760 1796 1761 1651 1636 1494 890 254 2 0 0 0 0 0 0 0 0 0 0 55 201 555 1563 1694 2704 2596 2485 2374 2217 1975 1872 1793 1696 1586 1376 943 722 620 307 192
3000 3043 3277 3382 3421 3392 3322 3297 3226 3123 3008 2898 2812 2784 2673 2682 2660 2619 2617 2561 2542 2407 2318 2192 2012 1928 1835 1546 1508 1532 1523 1584 1658 1610 1350 1631 1528 1456 1488 1623 1921 1806 2049 1268 1411 1338 1515 879 697 719 404 51 0 0 0 0 0 0 0 0 0 0 0 46 118 81 588 1460 1929 2737 2634 2494 2479 2238 2000 1868 1828 1734 1524 1416 1203 896 520 357 160
3006 2971 3181 3230 3314 3294 3240 3181 3155 3111 2994 2869 2754 2792 2614 2543 2566 2529 2538 2477 2316 2278 2180 2069 1899 1806 1657 1331 1433 1431 1496 1530 1433 1392 1397 1636 1633 1429 1503 1724 1672 1668 1295 815 767 822 614 269 86 1 0 0 0 0 0 2 0 0 0 0 0 0 0 67 111 424 733 1312 2153 2776 2672 2528 2485 2294 2098 1958 1748 1710 1556 1446 1101 737 586 243 122
3075 2910 2951 3098 3187 3212 3122 3087 3068 3028 2910 2843 2700 2734 2600 2491 2368 2444 2456 2392 2253 2136 2020 1913 1793 1681 1446 1232 1366 1379 1440 1379 1332 1333 1474 1558 1497 1427 1506 1618 1361 1242 738 219 141 132 44 14 5 0 0 0 0 0 0 0 0 0 0 0 0 0 9 71 537 476 818 1466 2266 2788 2684 2558 2529 2347 2146 1943 1806 1631 1606 1396 902 701 419 160 105
3050 2941 2773 3044 3087 3133 3064 3018 3020 2949 2866 2772 2649 2655 2519 2416 2206 2273 2258 2207 2127 2058 1902 1761 1649 1572 1268 1170 1252 1299 1254 1052 1311 1308 1525 1478 1377 1328 1381 1311 997 843 308 0 0 0 31 0 0 0 0 0 0 0 0 0 0 0 0 0 0 0 119 208 561 501 982 1633 2358 2848 2686 2644 2550 2415 2180 1997 1816 1751 1644 1193 844 687 463 192 121
2998 2769 2668 2921 2972 3012 3001 3005 2986 2932 2791 2729 2537 2582 2484 2375 2199 2226 2124 2007 1926 1943 1830 1674 1565 1448 1146 1128 1181 1154 1072 865 1326 1288 1511 1386 1234 1206 1188 882 556 53 8 0 0 0 16 11 0 0 0 0 0 0 0 0 0 0 0 0 0 10 173 231 452 771 1224 1800 2369 2547 2758 2635 2563 2420 2229 1995 1845 1795 1580 1127 858 667 468 258 118
2861 2700 2574 2794 2813 2808 2778 2925 2930 2892 2744 2656 2535 2572 2479 2367 2244 2209 2114 1900 1869 1846 1730 1609 1474 1348 1031 1046 1138 1104 1060 790 1238 1270 1469 1367 1168 1071 917 503 38 0 0 0 0 0 0 7 4 0 0 0 0 0 7 0 0 0 0 0 0 53 179 273 698 1014 1475 1881 2231 2607 2752 2564 2523 2436 2258 2085 1934 1816 1569 1098 858 712 556 332 135
2898 2702 2516 2612 2685 2576 2487 2640 2752 2799 2763 2684 2562 2545 2432 2362 2255 2160 2026 1849 1806 1793 1661 1535 1425 1280 980 881 1074 1025 1009 752 1063 1270 1390 1382 1171 927 592 20 15 6 0 0 0 2 1 3 3 1 0 0 0 0 0 0 0 0 0 0 0 115 374 463 849 1199 1581 1827 2049 2467 2446 2621 2450 2389 2327 2172 1974 1800 1526 1153 827 754 571 309 178
3078 2864 2609 2531 2569 2463 2290 2324 2486 2596 2610 2625 2556 2506 2378 2364 2298 2168 2012 1838 1691 1700 1619 1494 1370 1267 1032 741 967 906 1046 950 889 1231 1311 1339 1184 774 291 11 22 14 2 0 0 0 2 3 2 0 0 0 0 0 0 0 0 0 0 0 0 355 610 657 882 1230 1516 1810 2094 2283 2344 2256 2503 2417 2371 2207 2051 1788 1586 1062 850 726 496 470 228
3297 3092 2775 2522 2542 2404 2184 2143 2241 2367 2407 2459 2517 2463 2316 2248 2194 2096 1959 1847 1644 1610 1575 1470 1359 1246 1101 698 806 964 938 1152 808 1101 1261 1259 1079 776 0 16 22 8 38 0 0 0 0 12 24 7 0 0 0 0 0 0 0 0 0 0 2 811 1020 984 952 1113 1492 1835 2077 2207 2280 2311 2359 2445 2364 2218 2038 1827 1403 1122 942 735 529 492 172
3291 3243 3016 2681 2561 2474 2221 2074 2152 2220 2263 2243 2328 2352 2240 2158 2075 1959 1914 1833 1705 1625 1586 1465 1398 1265 1189 832 720 1036 977 1116 797 1022 1134 1144 990 761 6 10 10 0 44 40 0 0 0 0 1 0 258 0 0 0 0 0 0 0 0 54 2 1076 1395 1188 1020 1062 1387 1798 2003 2097 2126 2237 2259 2204 2107 2227 2025 1831 1466 1101 955 728 478 354 218
2581 3099 3170 2935 2742 2664 2508 2344 2203 2104 2103 2107 2207 2233 2134 2095 2065 1960 1892 1873 1745 1649 1617 1496 1485 1374 1246 1102 829 1131 1147 1019 778 914 996 1026 942 839 386 7 12 0 7 13 0 0 0 0 0 0 0 0 0 0 0 0 0 0 0 12 7 181 1412 1348 1142 1083 1286 1606 1847 1960 2058 2073 2184 2080 1955 1959 1936 1803 1508 1290 890 545 537 504 149
2292 2704 3082 3017 2856 2788 2668 2507 2340 2183 2015 2096 2176 2140 2145 1967 2052 2008 1905 1782 1698 1621 1625 1509 1529 1470 1321 1187 1005 1230 1358 1084 764 889 896 936 893 755 617 0 10 4 13 11 184 0 0 1 0 0 0 0 0 0 0 0 0 0 0 0 28 56 491 1304 1306 1282 1354 1554 1720 1780 1914 1884 2018 1955 1986 1808 1759 1625 1544 1193 973 573 388 359 109
1730 2506 2858 2955 2879 2824 2742 2410 2340 2236 2215 2144 2246 2176 2050 1975 2024 1965 1860 1774 1691 1579 1535 1539 1542 1548 1426 1240 1080 1323 1512 1346 882 727 712 747 794 633 592 0 37 55 76 81 74 7 0 12 12 0 0 0 0 0 0 0 0 0 0 0 0 355 29 973 1394 1379 1495 1525 1585 1707 1706 1730 1853 2031 1915 1712 1625 1541 1541 1283 983 619 420 361 98
1302 2414 2808 2877 2944 2876 2788 2420 2262 2366 2324 2219 2150 2078 1899 1846 1678 1823 1767 1786 1654 1529 1545 1549 1550 1564 1477 1312 1085 1367 1567 1645 1243 804 596 498 607 504 453 8 310 333 293 434 329 158 0 1 10 2 0 0 0 0 0 0 0 42 68 0 1 308 198 325 956 1351 1532 1493 1618 1653 1666 1616 1778 2010 1834 1685 1520 1374 1262 1226 888 773 502 226 93
1370 2136 2826 2842 2808 2810 2685 2414 2296 2336 2328 2259 2122 1932 1781 1906 1727 1565 1666 1671 1668 1641 1615 1590 1617 1567 1510 1294 1166 1399 1603 1788 1789 1547 1354 1039 554 442 370 93 709 634 525 686 729 606 49 2 0 0 70 0 0 0 0 0 0 578 452 411 734 762 1008 990 945 1004 1191 1492 1721 1802 1686 1682 1708 1895 1761 1626 1510 1367 1168 974 829 604 403 188 79
1285 1850 2642 2802 2756 2731 2682 2589 2436 2350 2365 2325 2296 1923 1729 1891 1816 1642 1399 1616 1633 1640 1647 1682 1689 1677 1564 1375 1268 1435 1624 1735 1784 1691 1619 1369 731 366 345 395 966 890 716 801 900 755 132 45 3 0 12 64 247 0 0 0 68 100 792 1121 1125 1258 1338 1192 1158 1044 1090 1230 1628 1854 1932 1838 1754 1843 1675 1585 1486 1312 1163 979 837 670 408 212 113
939 1865 2486 2654 2731 2816 2787 2715 2478 2288 2351 2412 2079 1873 1603 1659 1612 1575 1498 1476 1696 1628 1569 1694 1782 1819 1722 1508 1397 1455 1580 1644 1718 1628 1403 1354 776 526 399 704 1148 1102 869 864 848 923 536 35 34 124 1 0 1 0 0 0 3 0 717 946 863 927 1234 1499 1081 1257 1326 1409 1492 1690 1853 1942 1947 1904 1826 1731 1577 1452 1248 905 698 646 405 220 143
811 2449 2347 2413 2655 2794 2843 2782 2602 2390 2407 2336 2401 2015 1573 1657 1502 1615 1477 1609 1723 1757 1664 1675 1777 1848 1844 1706 1522 1494 1566 1583 1725 1739 1468 1357 900 735 672 907 1245 1219 997 887 857 914 844 496 46 114 146 0 0 0 0 2 2 0 249 636 670 810 1644 1815 1485 1477 1398 1529 1556 1468 1363 1498 1547 1626 1538 1625 1646 1521 1303 1013 804 578 402 260 190
807 2671 2433 2364 2524 2570 2596 2616 2593 2518 2568 2527 2220 2038 1778 1532 1447 1405 1451 1663 1705 1705 1827 1746 1764 1838 1867 1788 1615 1495 1564 1572 1702 1735 1596 1347 1056 840 902 1122 1333 1267 1143 990 806 738 866 753 469 36 107 220 17 30 9 1 0 197 607 569 447 462 368 1881 1769 1744 1754 1681 1590 1480 1326 1181 867 736 1080 1236 1314 1209 1020 909 774 629 494 321 261
942 2734 2520 2432 2452 2505 2568 2595 2531 2435 2452 2375 2367 2289 1965 1616 1458 1318 1527 1743 1725 1684 1644 1822 1876 1990 1983 1956 1755 1600 1620 1638 1647 1720 1623 1312 1188 924 986 1301 1359 1366 1225 1117 1016 821 697 740 585 210 137 356 408 213 265 10 6 488 457 431 383 547 344 423 1957 1765 1693 1673 1540 1442 1250 1177 887 535 616 810 1000 888 847 750 708 667 500 331 266
1500 2729 2561 2437 2391 2495 2556 2542 2415 2304 2278 2268 2232 2185 2006 1623 1554 1296 1660 1845 1548 1549 1579 1715 1864 1900 1995 1993 1985 1760 1662 1668 1623 1686 1693 1532 1384 1126 1042 1341 1379 1379 1301 1182 1141 1015 856 721 609 459 356 295 548 593 666 556 66 598 616 810 960 975 843 846 1664 1775 1700 1677 1594 1536 1355 1069 715 568 565 643 795 771 838 803 734 679 510 332 258
1752 2745 2665 2568 2499 2697 2678 2551 2364 2275 2248 2215 2112 1988 1984 1852 1535 1310 1690 1875 1661 1534 1603 1741 1782 1874 2026 2098 2076 1920 1738 1686 1645 1604 1673 1609 1508 1471 1236 1324 1430 1400 1379 1266 1233 1192 1090 911 602 346 350 540 578 710 923 1134 802 801 670 819 723 852 1019 1261 1537 1542 1250 1206 1296 1323 1279 1095 788 683 615 599 696 625 771 802 816 731 616 464 361
1634 2715 2760 2790 2798 2918 2746 2508 2476 2400 2312 2218 2023 1967 1912 1878 1860 1565 1611 1942 1829 1727 1805 1732 1752 1721 1975 2090 2058 1985 1799 1711 1674 1563 1574 1598 1480 1630 1660 1402 1443 1436 1444 1417 1319 1264 1190 1013 697 534 464 679 756 801 895 1218 1452 1158 949 1164 1634 1607 1288 1063 1029 769 680 928 1142 1298 1125 841 878 828 710 883 828 618 685 858 825 785 586 515 468
1537 2710 2923 3130 3129 3011 2847 2714 2623 2490 2274 2210 1975 1948 1895 1867 1850 1654 1414 1788 1857 1875 1880 1776 1729 1658 1734 1979 2062 1982 1821 1709 1681 1582 1383 1514 1493 1440 1808 1809 1542 1494 1496 1492 1412 1281 1148 1073 1004 804 697 852 978 812 919 1133 1478 1364 1368 1357 1606 1653 1715 1601 1390 997 883 1094 1006 951 887 884 896 780 780 1036 999 859 797 835 832 774 639 467 451
1488 2647 3009 3210 3186 2982 2834 2815 2719 2444 2264 2044 1844 1750 1800 1785 1788 1694 1449 1540 1581 1524 1638 1738 1741 1614 1492 1703 1957 1980 1874 1720 1623 1555 1400 1401 1412 1351 1510 1947 1871 1614 1511 1458 1401 1306 1131 953 1188 1155 926 944 1103 1031 1088 1155 1529 1473 1580 1544 1727 1860 1867 1764 1588 1518 1308 1059 890 817 694 611 681 663 668 747 970 1147 1048 955 754 694 669 470 345
1522 2460 3031 3237 3196 2860 2810 2674 2521 2117 1889 1819 1644 1586 1597 1647 1685 1672 1488 1410 1477 1518 1670 1749 1679 1513 1462 1610 1758 1863 1809 1702 1614 1539 1407 1305 1376 1296 1260 1574 1987 1897 1645 1493 1409 1304 1146 1015 1159 1289 1195 1010 1111 1256 1162 1351 1526 1527 1667 1653 1750 1809 1847 1794 1670 1623 1510 1215 986 804 734 695 674 673 685 784 823 955 1007 911 773 660 604 535 379
1349 2277 2880 2962 2762 2758 2640 2412 2190 1888 1654 1579 1542 1507 1478 1473 1614 1632 1521 1507 1489 1542 1680 1702 1563 1371 1489 1628 1635 1685 1687 1655 1607 1479 1351 1304 1341 1316 1228 1250 1692 2076 1983 1683 1553 1386 1267 1187 1289 1379 1426 1317 1140 1283 1320 1472 1775 1773 1839 1704 1668 1697 1760 1665 1632 1592 1644 1372 1111 978 746 768 741 831 856 974 912 900 910 899 880 683 573 428 363
Wind_Speed
21 22 19 20 24 28 31 33 31 30 29 29 28 28 29 29 30 31 33 33 33 33 30 28 27 25 26 26 27 28 29 30 31 31 31 32 32 31 31 31 31 29 28 27 26 25 23 22 21 21 20 19 18 17 17 17 17 17 17 18 19 19 20 21 21 20 20 20 19 17 17 17 17 18 19 19 20 20 20 nan 18 13 11 16 18
24 23 21 19 24 27 30 32 31 31 30 30 30 29 29 29 30 30 32 33 33 33 32 29 28 27 26 26 28 28 29 30 31 31 32 32 31 31 31 32 32 31 29 26 25 24 23 22 22 22 21 19 18 17 17 17 17 17 18 18 19 20 21 21 21 21 21 20 20 20 20 20 19 18 18 19 19 20 20 20 19 12 11 19 19
28 27 25 23 25 27 29 31 32 32 31 31 31 31 30 30 30 29 31 33 32 32 32 30 29 28 26 27 28 29 30 30 31 32 32 32 32 31 31 32 33 32 29 26 24 23 24 24 23 22 21 20 18 18 17 17 17 17 18 18 19 20 21 22 22 22 21 20 20 21 22 23 22 20 19 19 20 20 20 20 19 17 15 19 18
32 28 28 27 27 27 28 30 32 32 32 31 32 32 31 31 31 30 31 32 32 31 32 32 30 29 27 27 28 29 29 31 31 32 33 33 33 32 31 32 33 33 31 27 24 23 24 24 24 23 22 20 18 19 19 18 18 18 18 19 19 20 21 23 23 23 21 20 19 17 14 14 17 20 21 21 21 22 21 21 20 20 20 19 20
35 30 29 27 26 27 28 30 32 33 33 32 31 31 31 31 31 32 31 31 31 30 30 31 31 30 29 29 29 29 30 31 32 32 33 33 32 32 32 31 32 33 32 29 26 23 23 25 24 23 22 20 19 18 18 19 19 18 18 19 20 20 21 21 21 20 20 20 19 15 12 14 14 19 19 20 22 21 21 22 22 21 20 20 19
34 30 29 28 27 28 29 30 32 34 33 32 32 32 31 32 33 33 32 31 30 30 30 30 31 31 30 30 29 29 30 31 32 33 33 32 31 32 32 32 32 32 32 30 27 24 23 25 24 23 22 20 19 18 18 18 18 18 18 19 20 20 20 19 18 18 18 20 17 12 11 12 13 14 20 20 20 20 20 21 21 20 20 20 19
37 31 31 30 28 27 28 30 32 33 33 32 32 31 31 32 33 33 32 31 30 30 31 30 31 31 31 30 30 31 31 32 33 34 33 32 32 32 32 31 31 31 31 30 28 25 23 24 24 22 21 20 18 18 18 18 18 18 19 19 19 19 19 19 18 18 17 15 12 11 11 12 13 13 20 20 20 20 20 20 20 19 19 19 18
39 34 31 29 27 25 27 28 30 32 31 31 31 30 30 31 33 34 33 31 31 29 30 31 30 31 30 31 32 32 32 33 34 34 33 32 30 31 30 30 30 30 31 30 29 26 24 23 23 22 21 19 18 18 18 17 18 18 18 19 18 18 18 19 19 18 17 13 13 13 12 12 12 13 19 20 20 20 19 19 18 19 19 19 18
38 34 29 26 25 28 28 25 27 30 30 30 31 31 32 32 34 35 34 32 31 31 30 29 30 30 30 30 32 33 33 33 34 34 33 31 30 29 29 30 30 30 30 30 29 26 24 23 23 22 21 19 18 17 17 17 17 17 18 18 18 17 16 16 17 18 15 13 14 13 13 13 13 13 18 19 19 18 18 17 17 18 18 18 17
35 30 27 22 21 28 30 28 27 30 29 29 29 30 32 32 33 33 34 33 32 31 30 30 30 30 30 30 31 32 32 33 33 33 32 30 29 28 28 28 29 29 29 29 28 26 24 22 22 22 22 19 17 16 16 16 16 17 18 18 17 16 14 14 14 15 14 13 14 13 13 16 12 13 18 20 19 19 18 18 15 16 15 17 16
32 25 24 23 25 29 33 31 29 31 31 32 31 29 30 32 32 32 34 34 32 30 29 30 30 30 29 29 29 31 32 33 33 32 31 30 29 28 27 27 27 28 28 28 28 26 23 21 21 22 21 19 17 16 15 15 15 16 17 17 17 15 14 13 12 13 13 14 15 14 17 20 14 14 20 20 19 19 18 18 17 16 16 16 15
34 27 25 23 29 33 34 35 32 31 34 33 36 36 35 33 32 32 33 34 33 31 29 28 29 29 28 28 28 29 32 32 32 31 30 30 28 28 27 27 26 26 26 27 27 26 23 20 20 20 20 19 17 15 15 15 15 15 15 15 15 14 14 13 13 12 14 16 15 15 16 17 15 18 22 20 19 18 17 17 16 16 15 15 15
34 30 27 23 27 32 35 36 33 32 34 32 34 39 38 37 36 33 32 33 33 32 30 28 27 27 27 26 26 28 30 30 30 30 30 29 29 28 28 28 27 26 25 26 25 24 22 20 19 19 19 18 16 14 14 14 15 15 14 14 14 14 13 14 13 14 14 15 15 16 17 16 16 22 21 21 19 18 17 16 16 16 15 15 16
33 31 30 28 26 33 38 36 33 32 31 31 30 33 36 38 41 38 34 34 33 32 30 27 26 25 25 24 24 25 26 27 28 29 29 29 29 29 28 29 28 26 26 25 24 23 22 20 18 17 16 16 14 12 12 13 14 15 15 15 14 13 14 15 14 14 15 16 17 18 17 16 16 22 21 21 20 19 17 17 17 17 16 15 15
34 34 33 30 26 29 36 36 33 31 30 30 30 30 32 36 41 40 37 35 34 33 30 27 26 25 24 23 23 24 24 25 27 28 29 28 28 28 28 29 29 27 25 25 25 23 22 19 16 15 14 13 11 10 10 12 13 15 16 15 15 14 14 14 14 16 18 17 17 18 17 16 22 22 23 23 22 20 18 18 18 17 16 15 14
29 33 34 33 30 28 29 32 33 30 29 29 30 29 29 32 37 39 38 36 34 33 31 28 27 26 24 23 23 24 24 24 26 28 27 27 26 26 27 27 28 26 24 24 24 23 21 17 15 13 10 10 8 7 8 9 13 15 16 15 14 12 13 14 14 14 16 16 17 18 18 18 25 24 25 26 24 22 21 20 19 18 17 16 15
26 29 32 33 33 30 28 29 29 35 32 29 27 28 27 30 34 37 37 36 34 32 30 28 27 26 25 24 24 24 24 25 26 27 27 26 25 25 25 26 26 26 24 23 23 21 19 16 13 10 8 6 5 5 6 8 11 14 13 14 14 12 12 12 13 14 16 17 18 19 20 20 26 27 28 28 27 25 24 22 21 19 18 17 15
27 26 27 30 31 31 30 31 31 32 33 33 29 27 28 31 33 33 34 35 34 32 29 27 26 25 26 25 25 24 25 26 26 26 27 26 25 24 24 26 27 26 25 23 21 19 17 15 11 7 5 3 2 4 6 7 8 12 12 11 11 10 11 11 14 14 16 18 20 20 20 25 30 29 30 30 30 28 26 24 22 20 19 17 16
30 29 28 28 28 29 31 31 32 32 33 33 31 29 29 31 33 29 30 34 34 31 30 27 25 25 26 26 25 26 26 26 27 27 28 28 27 26 25 25 26 26 25 22 19 17 15 12 8 5 3 1 2 5 5 5 7 7 11 10 11 10 9 10 12 15 16 18 20 21 22 30 31 31 31 30 31 30 27 25 23 22 19 18 17
31 30 29 26 26 28 31 32 33 35 34 33 33 32 29 30 31 29 30 35 34 29 30 28 25 26 27 27 27 25 25 24 29 27 29 28 28 26 26 25 25 25 23 20 16 14 12 10 7 4 2 2 4 6 6 7 8 7 5 11 10 9 11 11 13 15 17 19 19 21 25 31 31 31 31 31 31 30 28 26 24 22 20 19 18
31 29 27 26 27 27 30 32 33 36 37 36 32 32 29 28 28 29 30 34 31 27 28 28 26 26 26 27 28 24 21 21 25 24 28 24 27 28 27 25 24 23 21 18 15 13 12 9 6 4 2 3 5 7 6 7 8 7 7 7 9 nan nan 11 15 16 17 18 20 21 29 31 32 33 32 32 31 30 28 26 25 23 21 19 18
32 30 28 27 26 25 26 30 32 34 37 37 34 30 28 28 28 27 25 28 28 26 25 24 25 23 25 26 25 23 22 22 24 25 22 23 24 27 25 23 22 20 18 17 16 14 11 7 5 4 1 5 6 5 6 nan 8 8 7 2 10 nan nan nan 15 17 17 18 20 24 31 33 34 34 34 32 31 30 29 27 25 24 22 20 18
31 30 29 27 25 23 24 28 30 32 35 36 34 31 29 29 31 30 25 24 26 28 26 25 25 24 23 25 25 23 22 22 22 22 21 24 21 23 22 21 21 20 17 16 16 13 8 5 3 1 3 6 5 6 nan nan nan nan nan nan nan nan nan nan nan 18 18 19 20 29 33 34 35 36 35 34 32 32 31 29 26 25 23 21 18
28 28 28 27 26 23 24 27 30 31 32 32 33 31 30 30 30 30 28 27 29 30 28 26 25 25 25 25 25 24 22 21 23 25 24 18 16 19 20 20 19 18 15 13 13 9 6 3 2 3 5 5 6 nan nan nan nan nan nan nan nan nan nan nan nan 18 18 20 22 33 34 34 35 36 36 35 34 33 32 30 27 25 24 22 18
24 27 25 25 26 26 25 26 29 30 29 29 30 30 31 31 30 29 30 32 33 32 28 26 25 25 26 26 26 24 22 21 18 17 18 17 12 13 15 16 14 12 10 8 9 7 5 3 3 4 5 nan nan nan nan nan nan nan nan nan nan nan nan nan 16 nan 19 21 25 35 35 34 34 36 36 35 35 34 32 30 28 26 24 22 18
27 25 22 25 26 27 26 27 28 28 28 27 28 29 30 29 31 30 32 33 32 29 27 25 25 26 26 26 26 25 22 20 18 16 17 14 11 11 14 16 14 12 7 6 7 5 3 1 nan nan nan nan nan nan nan nan nan nan nan nan nan nan nan nan 15 17 20 22 25 35 35 35 34 36 37 37 35 34 32 30 27 25 24 21 19
28 26 25 26 27 28 28 28 28 28 29 27 26 28 28 29 30 31 33 32 31 28 24 25 26 27 27 26 26 24 21 20 18 16 15 13 10 11 13 15 16 13 7 5 6 3 nan nan nan nan nan nan nan nan nan nan nan nan nan nan nan nan nan nan 15 18 20 23 26 35 33 34 34 35 37 37 36 34 32 30 27 25 23 22 19
33 30 27 28 27 27 29 29 29 29 29 28 25 27 29 30 31 31 31 32 34 32 27 25 27 27 26 26 26 23 20 21 19 16 14 12 10 11 12 13 15 12 6 nan nan nan nan nan nan nan nan nan nan nan nan nan nan nan nan nan nan nan 13 14 16 19 20 23 24 30 32 33 33 34 36 37 36 35 33 30 27 24 23 21 19
32 30 27 28 27 28 29 29 30 30 30 29 26 26 30 32 32 31 32 32 35 33 31 28 26 27 26 25 24 22 20 21 20 15 14 11 12 12 12 12 12 nan nan nan nan nan nan nan nan nan nan nan nan nan nan nan nan nan nan nan nan nan 13 15 16 18 19 22 23 26 32 33 32 33 35 37 37 36 34 30 26 24 22 20 18
31 31 29 27 29 29 28 28 31 31 31 31 29 28 29 31 32 33 33 32 32 32 32 32 27 25 24 23 21 21 21 22 21 16 14 11 12 12 12 11 nan nan nan nan nan nan nan nan nan nan nan nan nan nan nan nan nan nan nan nan nan nan 13 14 16 18 19 21 22 23 32 32 33 33 34 36 37 36 35 31 27 24 22 20 18
35 33 31 30 30 30 28 29 32 34 33 31 31 31 31 32 33 34 33 32 32 31 33 36 31 25 22 21 21 21 22 21 20 16 12 11 11 12 11 nan nan nan nan nan nan nan nan nan nan nan nan nan nan nan nan nan nan nan nan nan nan 9 10 14 16 17 19 20 20 21 25 32 32 33 33 34 37 36 35 31 28 24 21 19 18
38 34 34 33 32 30 30 30 33 36 35 33 34 33 32 32 33 35 34 32 33 33 33 37 32 26 22 21 21 21 21 19 18 14 10 10 11 12 12 nan nan nan nan nan nan nan nan nan nan nan nan nan nan nan nan nan nan nan nan nan nan 10 12 14 15 16 17 18 19 21 22 25 30 32 31 32 35 36 34 31 27 24 19 18 18
39 37 36 35 32 31 32 31 34 36 35 34 34 33 33 32 33 34 33 32 34 31 28 32 30 27 23 21 21 21 19 18 16 11 9 10 10 12 nan nan nan nan nan nan nan nan nan nan nan nan nan nan nan nan nan nan nan nan nan nan nan 8 9 12 14 15 17 19 20 21 22 23 24 28 30 31 33 33 32 29 27 24 19 18 17
43 40 38 36 35 34 34 34 34 36 37 37 38 37 36 36 37 37 35 33 32 27 23 28 30 28 24 21 21 19 17 17 15 10 9 11 11 11 nan nan nan nan nan nan nan nan nan nan nan nan 5 nan nan nan nan nan nan nan nan nan nan 9 12 13 14 15 16 19 19 20 22 22 23 23 25 30 32 32 31 29 27 23 18 17 15
51 44 39 37 38 36 37 36 35 38 47 51 47 44 44 41 39 38 36 33 32 29 26 28 31 30 25 22 20 17 17 17 15 12 10 11 12 12 11 nan nan nan nan nan nan nan nan nan nan nan nan nan nan nan nan nan nan nan nan nan nan 8 11 13 12 14 16 17 18 20 21 22 22 22 23 25 30 33 32 29 27 21 17 16 15
55 49 43 40 39 40 39 39 42 48 51 53 54 51 47 43 40 38 39 35 35 34 32 32 33 31 25 22 20 17 16 17 15 14 11 11 12 13 13 nan nan nan nan nan 3 nan nan nan nan nan nan nan nan nan nan nan nan nan nan nan nan nan 11 11 12 13 14 16 17 19 22 22 21 21 23 24 25 28 33 29 26 20 17 16 14
57 54 48 42 41 44 47 47 49 51 52 50 48 44 41 40 41 39 38 36 35 37 37 36 36 32 24 22 21 18 17 16 16 15 13 11 12 14 16 nan nan nan nan nan nan nan nan nan nan nan nan nan nan nan nan nan nan nan nan nan nan 8 nan 12 13 13 13 16 17 19 21 22 22 24 20 22 22 24 29 30 26 20 17 16 nan
58 56 51 46 43 48 51 52 52 52 52 52 52 54 51 49 43 40 39 37 35 37 39 37 34 31 26 24 23 20 19 18 17 16 15 14 13 13 15 nan 12 10 8 6 4 2 nan nan nan nan nan nan nan nan nan nan nan nan nan nan nan 7 9 11 12 12 15 16 16 18 21 21 21 20 19 20 20 22 24 29 29 22 18 18 nan
59 57 55 52 51 52 54 52 52 54 55 55 57 55 56 52 50 49 46 40 37 38 39 38 33 31 28 27 26 24 21 20 19 18 17 16 14 13 15 nan 16 12 10 7 5 2 nan nan nan nan nan nan nan nan nan nan nan 5 8 9 9 10 9 10 11 13 14 15 16 16 16 20 20 18 18 19 19 21 23 24 24 20 18 21 nan
57 59 62 58 54 53 54 54 54 55 56 57 57 52 48 41 42 44 46 43 39 36 39 40 36 32 30 28 28 27 24 22 21 19 18 18 15 14 16 18 18 15 10 8 6 4 0 nan nan nan nan nan 2 nan nan nan nan nan 8 9 9 7 7 9 11 12 13 14 14 14 16 16 16 16 16 18 19 21 22 22 22 21 19 21 21
57 62 65 59 55 53 52 53 54 55 55 55 57 50 40 35 34 35 39 41 40 39 42 42 37 34 31 30 29 28 25 24 23 20 19 19 16 16 19 20 19 15 11 7 6 5 4 nan nan 0 nan nan nan nan nan nan nan nan 8 8 8 7 7 8 8 10 12 13 14 14 14 14 14 14 14 16 19 20 21 21 21 21 21 19 18
56 62 65 60 56 54 52 55 60 58 55 54 56 46 38 37 34 31 39 45 47 46 46 45 40 37 34 32 30 28 26 25 24 22 21 20 17 18 20 20 19 16 13 10 8 7 6 5 nan 1 1 nan nan nan nan nan nan nan 9 8 7 7 7 6 7 7 9 11 11 12 13 14 13 12 12 15 17 19 19 19 20 20 20 20 19
52 58 64 63 58 55 54 59 60 58 52 52 55 44 35 37 37 37 42 49 49 53 57 54 46 40 37 34 32 30 27 26 25 24 24 21 18 20 21 22 20 18 15 11 7 5 5 4 4 nan 1 1 nan nan nan nan nan 8 8 8 10 7 5 4 5 6 6 7 7 8 10 10 11 10 12 13 16 18 19 19 20 19 20 20 18
49 55 61 62 58 55 57 59 59 56 53 51 49 44 37 38 45 47 45 45 42 46 51 54 49 42 37 35 31 29 28 26 26 26 26 23 20 20 24 24 22 19 15 11 8 6 7 6 5 2 4 3 4 3 7 nan nan 11 8 12 13 10 7 9 8 7 5 6 7 8 8 9 10 11 10 13 14 17 19 20 21 20 21 19 19
44 48 53 57 57 54 55 57 57 54 54 51 47 47 49 52 55 57 52 53 52 48 48 51 49 44 39 34 27 28 28 27 28 27 26 24 23 23 25 26 25 20 16 12 9 7 8 7 6 4 4 6 5 6 5 9 nan 10 11 8 10 10 13 11 9 8 6 5 5 7 7 8 10 11 11 11 13 15 17 20 20 20 21 21 20
40 42 45 50 53 53 54 56 57 55 53 51 52 52 50 49 51 51 47 43 45 44 41 44 49 43 37 32 27 27 29 28 29 29 27 26 25 25 27 28 27 21 15 14 12 12 10 8 6 6 5 6 9 9 7 7 8 8 9 11 14 14 11 12 11 10 7 6 6 6 6 8 10 11 11 13 14 15 16 18 20 19 18 20 20
36 40 43 46 48 51 53 54 54 52 51 53 56 54 52 48 45 45 44 40 42 40 37 41 44 41 39 34 30 29 30 31 33 30 28 27 25 27 28 29 29 24 17 16 14 11 10 8 9 8 7 10 12 11 9 7 9 5 5 7 9 10 13 12 13 10 7 6 5 5 5 6 8 10 11 13 15 15 15 16 18 20 20 19 20
38 41 42 44 45 47 50 51 54 53 51 55 56 53 51 48 47 46 44 42 43 42 38 36 39 43 43 39 35 35 34 34 33 31 29 28 25 27 30 30 31 27 19 17 15 14 13 12 11 10 10 11 13 13 10 9 11 6 7 5 6 7 9 11 14 15 12 9 6 4 4 6 7 9 10 12 13 16 16 16 18 19 20 21 21
43 41 40 41 41 42 45 49 52 52 52 54 56 53 51 49 47 47 44 43 43 44 41 38 36 38 41 41 37 38 39 36 34 31 29 27 26 27 29 30 33 29 22 21 19 17 13 12 13 13 12 12 13 14 14 10 10 9 10 4 5 7 8 9 11 13 13 10 6 5 5 4 5 6 8 8 11 13 15 16 17 19 20 21 21
40 41 41 42 41 41 42 46 49 51 51 53 55 53 51 52 49 45 43 44 44 45 44 41 37 34 34 38 39 41 40 37 34 30 29 28 27 28 27 28 33 31 25 25 23 18 15 14 14 14 14 14 14 15 13 12 11 10 9 9 8 5 4 7 9 11 11 11 12 8 5 4 4 5 9 10 10 13 14 15 15 17 18 20 21
42 43 44 43 42 39 39 41 43 48 50 51 54 53 52 52 49 45 43 43 44 46 44 42 41 36 31 33 41 45 41 36 34 30 29 31 29 28 27 29 35 30 26 28 24 20 19 18 17 17 15 14 14 13 12 11 10 10 8 9 9 10 11 11 13 12 13 13 11 9 5 5 6 4 7 10 11 13 15 15 15 16 18 19 20
Wind_Direction
272 266 263 272 276 275 275 276 274 274 274 277 278 280 282 284 286 287 286 283 282 281 279 278 279 280 282 284 285 285 286 288 290 294 296 300 302 305 308 308 306 303 301 305 307 311 311 309 307 306 305 307 310 313 315 314 312 312 312 310 307 306 303 302 301 298 296 292 289 286 285 292 295 291 292 294 294 290 287 nan 286 287 287 282 278
279 261 257 266 275 273 276 276 274 274 273 275 278 280 283 283 285 287 286 284 282 281 281 280 280 279 281 282 283 283 284 288 292 294 296 299 302 304 305 306 305 301 300 303 305 306 306 307 307 306 306 307 310 315 315 314 313 315 316 316 314 311 308 307 305 303 301 298 297 296 294 294 293 292 298 301 300 300 297 293 290 297 301 287 285
268 260 255 265 272 272 276 276 275 273 273 275 278 281 283 284 285 285 285 284 282 281 280 279 278 279 279 281 281 284 287 289 292 294 297 299 301 302 303 303 303 301 300 299 301 303 306 305 306 305 306 309 312 314 314 315 316 320 321 319 317 315 312 311 311 306 302 299 299 299 300 300 301 304 306 306 307 305 302 300 298 297 303 292 291
268 258 256 266 269 270 275 276 277 274 275 275 277 281 282 284 284 284 282 282 281 280 281 281 279 279 279 280 283 285 288 290 292 295 296 298 299 300 301 301 302 302 300 299 299 303 304 305 305 306 308 311 313 313 313 316 318 321 322 322 321 319 317 316 315 311 305 302 301 305 320 319 311 306 306 307 305 307 306 303 302 302 300 298 295
262 260 259 261 262 267 274 275 276 274 275 275 278 281 281 283 282 281 279 279 280 278 279 281 280 279 281 282 284 287 289 291 292 294 295 297 298 299 300 301 301 301 301 300 300 302 304 305 306 306 308 311 313 314 315 318 320 323 326 326 324 324 325 326 323 314 306 305 306 311 328 325 321 307 306 304 304 304 304 303 303 302 300 297 297
258 258 260 263 262 264 272 273 274 274 275 274 278 282 283 283 282 280 278 278 279 280 280 280 281 281 282 284 286 288 290 291 291 292 294 296 298 299 300 301 301 302 301 299 300 302 305 305 306 306 308 311 312 313 315 320 324 328 331 330 327 327 328 330 330 327 319 312 310 320 325 324 324 319 304 303 301 300 300 300 300 298 295 291 291
261 255 262 265 256 258 269 272 273 274 275 276 280 282 283 284 283 282 280 282 282 283 283 280 281 282 284 286 288 289 289 290 291 293 294 296 298 300 301 301 302 302 301 298 298 301 304 305 306 306 308 309 311 314 317 322 327 333 335 333 330 331 332 333 334 334 332 326 327 332 331 326 326 323 304 301 298 298 298 299 300 299 295 292 288
252 248 250 254 246 253 265 268 272 272 274 278 280 282 283 285 284 284 283 282 284 282 283 283 282 283 285 287 289 289 289 291 293 293 294 296 298 300 301 301 302 302 301 298 297 299 302 305 306 306 306 307 311 315 320 326 332 338 339 334 331 332 334 334 337 339 333 330 331 332 332 330 325 319 305 301 301 299 299 298 299 299 297 294 289
252 246 242 250 248 266 266 262 268 271 273 276 280 281 282 284 283 283 285 284 286 286 284 282 282 284 286 288 289 290 291 293 293 294 296 298 299 300 301 301 302 303 301 299 297 298 300 304 307 306 305 307 312 316 324 331 337 341 340 337 335 337 339 340 338 334 333 332 329 332 333 330 320 317 308 304 302 301 300 301 299 296 294 291 289
256 249 247 256 267 275 274 274 269 270 273 277 279 280 279 279 280 281 283 283 285 287 287 286 286 288 288 288 289 292 293 294 293 294 297 299 300 301 301 302 303 303 302 300 299 297 300 304 307 306 304 308 312 319 329 335 338 340 339 336 335 335 339 341 342 334 330 325 326 330 332 324 317 314 311 307 307 306 307 307 309 303 300 290 290
266 258 259 270 283 283 284 281 279 278 276 278 276 276 277 278 279 281 282 284 285 286 288 289 289 290 290 289 290 294 294 294 294 294 296 299 300 301 301 301 303 302 302 302 301 300 301 304 307 305 304 308 314 323 332 337 339 341 341 339 337 339 340 339 340 340 338 331 328 333 328 320 320 320 312 311 310 308 307 306 305 301 297 295 292
270 266 267 270 288 289 288 287 285 284 285 282 283 280 276 276 278 279 280 283 285 287 288 289 291 291 291 291 292 293 294 294 293 293 295 298 300 300 301 301 301 300 301 303 303 302 303 305 305 305 304 308 316 327 335 336 340 345 345 341 339 340 344 339 332 333 327 327 328 324 324 326 328 320 314 313 311 309 306 304 303 305 303 301 297
271 275 275 273 275 285 283 284 286 288 291 292 293 291 281 276 277 277 277 280 283 287 290 294 295 294 293 292 293 292 293 293 292 294 297 300 302 302 301 302 300 300 302 303 303 302 303 304 306 306 307 309 316 330 336 337 345 348 349 343 339 340 346 344 332 326 324 325 324 324 329 333 330 320 317 316 315 312 309 306 304 303 304 303 302
273 276 279 280 273 285 283 283 284 284 288 291 296 299 291 284 282 278 276 278 281 286 291 298 299 297 295 294 293 292 292 294 294 297 301 304 305 305 304 302 300 299 301 303 302 302 301 303 308 309 308 309 317 333 341 342 347 350 348 343 341 343 337 340 334 331 333 334 335 337 339 338 334 324 324 321 320 316 311 307 303 300 301 303 302
276 277 277 277 275 276 285 283 283 284 286 288 290 296 297 293 289 283 278 278 281 285 292 298 300 297 296 296 293 293 293 292 297 300 303 306 308 308 306 304 301 300 301 302 301 300 301 306 309 311 309 307 317 338 349 350 350 350 348 345 341 337 331 340 339 339 342 345 345 345 347 348 336 333 329 327 324 319 314 310 305 302 300 296 296
270 273 272 274 276 273 277 287 291 288 288 291 292 293 292 293 292 287 280 278 282 285 289 294 296 295 294 294 294 293 291 291 296 300 303 306 309 309 307 304 302 302 302 302 301 301 304 307 310 309 306 307 324 349 1 2 353 350 346 343 339 336 335 342 338 344 348 348 349 351 353 351 339 338 335 331 328 323 318 313 309 305 300 295 290
274 277 277 273 273 271 271 278 281 289 288 288 293 298 297 293 290 288 282 279 282 285 288 290 292 292 292 292 292 291 290 290 295 300 303 306 309 308 305 303 301 302 302 302 302 303 305 307 310 309 306 317 338 2 19 18 1 347 346 341 339 341 340 345 344 352 355 353 352 353 352 348 341 340 337 334 329 324 321 319 315 310 306 300 291
277 279 283 282 278 274 271 274 276 276 278 282 285 292 297 296 291 286 282 279 280 283 284 287 289 291 291 291 290 289 289 291 296 301 304 304 305 305 302 301 301 302 302 303 304 304 306 308 309 307 309 317 5 38 40 34 16 350 344 338 343 351 355 353 354 0 0 358 354 350 349 347 343 342 339 336 331 325 322 319 317 316 312 305 296
273 272 278 285 285 279 274 271 272 271 273 272 271 278 290 293 290 282 277 274 273 279 283 283 286 289 290 290 289 290 291 294 299 302 303 304 303 302 301 298 298 300 301 302 303 305 307 308 305 298 299 254 84 76 73 52 35 23 335 343 348 3 28 10 3 4 5 359 353 347 352 348 346 343 339 335 331 328 323 321 320 318 314 310 304
269 271 274 276 279 281 274 269 268 270 268 268 275 277 286 292 288 284 284 278 272 272 281 283 283 288 291 292 290 287 289 292 302 302 305 306 305 300 302 297 295 298 299 300 304 308 309 307 303 286 254 159 106 102 95 68 48 46 23 338 357 15 19 21 9 6 1 359 352 352 356 351 348 344 340 336 333 329 326 323 320 318 315 312 309
258 262 267 271 277 278 274 268 266 268 269 267 267 274 281 286 280 288 293 291 280 274 280 282 284 286 288 289 289 282 278 288 298 297 307 303 308 308 305 299 295 295 296 301 307 311 311 305 298 267 217 125 103 103 81 57 56 69 74 337 350 nan nan 21 14 4 3 358 355 1 358 354 351 346 342 338 334 331 329 326 322 320 317 312 309
257 256 260 269 274 273 273 267 264 266 266 264 263 262 266 272 265 271 278 287 281 272 266 264 269 268 281 281 273 275 277 285 295 304 300 306 309 313 307 299 294 291 292 301 308 305 305 299 280 256 152 96 102 79 46 nan 64 66 74 42 349 nan nan nan 18 5 3 0 359 4 360 357 352 347 342 339 336 333 332 329 327 324 321 316 312
254 255 255 263 264 268 273 272 268 266 266 265 261 257 259 258 264 267 262 264 265 257 252 257 259 266 268 269 269 269 276 286 297 300 298 312 310 314 307 299 295 294 294 300 303 301 294 285 261 206 106 96 88 59 nan nan nan nan nan nan nan nan nan nan nan 9 2 360 0 5 2 357 352 347 343 339 337 335 334 332 330 327 324 322 316
261 261 258 253 257 263 270 270 272 269 266 262 259 253 250 251 257 261 256 250 245 238 244 249 256 263 264 264 265 268 275 287 305 315 314 304 307 312 307 300 295 290 296 288 292 289 284 255 227 120 104 94 70 nan nan nan nan nan nan nan nan nan nan nan nan 9 1 1 4 5 4 358 353 348 345 341 339 338 337 334 332 329 327 327 322
261 257 252 251 253 257 260 264 267 268 267 261 258 251 249 248 245 253 255 252 243 229 229 243 251 258 261 261 264 267 275 288 294 300 299 299 294 285 285 280 269 268 286 270 270 262 256 215 169 117 92 nan nan nan nan nan nan nan nan nan nan nan nan nan 7 nan 4 6 10 7 4 359 356 351 347 344 342 341 340 338 336 332 327 327 325
251 252 252 246 245 249 252 255 263 267 268 262 258 252 252 246 243 248 253 254 253 230 219 236 245 253 257 260 264 268 278 287 289 293 298 300 295 284 277 274 267 266 261 274 270 260 240 141 nan nan nan nan nan nan nan nan nan nan nan nan nan nan nan nan 4 4 7 10 14 8 5 1 357 352 349 346 343 341 341 338 337 334 328 328 325
250 249 246 243 244 244 247 253 258 263 266 262 258 253 248 249 246 246 253 254 252 240 226 233 241 249 255 259 264 269 282 287 286 289 298 297 289 275 272 277 283 282 268 269 267 254 nan nan nan nan nan nan nan nan nan nan nan nan nan nan nan nan nan nan 3 6 8 11 15 8 5 2 358 354 352 350 347 344 342 337 338 336 332 329 326
249 249 246 248 249 249 246 251 256 260 263 264 263 258 250 250 250 249 250 255 251 242 232 233 241 247 251 256 262 269 282 288 284 288 297 292 283 270 266 278 286 284 264 nan nan nan nan nan nan nan nan nan nan nan nan nan nan nan nan nan nan nan 360 353 6 7 7 11 15 10 6 4 360 357 355 354 352 347 342 337 338 337 335 332 328
255 254 252 254 256 253 248 249 250 259 261 263 264 257 252 249 251 253 253 258 255 243 231 231 237 243 248 253 260 267 275 284 286 287 293 291 269 262 268 277 276 nan nan nan nan nan nan nan nan nan nan nan nan nan nan nan nan nan nan nan nan nan 357 358 8 4 7 11 14 11 6 4 1 359 358 356 354 350 345 342 340 338 337 334 331
267 263 257 254 257 258 256 251 250 253 255 261 261 260 257 250 249 251 251 256 257 253 238 229 230 237 244 250 258 266 278 290 286 284 296 285 267 260 261 260 nan nan nan nan nan nan nan nan nan nan nan nan nan nan nan nan nan nan nan nan nan nan 357 1 7 4 5 10 12 10 5 4 1 0 360 358 355 352 349 346 343 340 339 336 335
258 256 251 249 251 255 253 250 247 248 247 251 255 258 257 254 250 249 252 252 255 257 243 229 226 227 237 249 255 266 274 285 281 281 289 283 267 263 256 nan nan nan nan nan nan nan nan nan nan nan nan nan nan nan nan nan nan nan nan nan nan 357 353 3 7 3 1 8 11 12 10 5 2 1 2 0 356 354 353 351 346 344 341 335 335
255 251 246 243 244 249 251 248 246 245 245 246 246 252 255 255 254 250 253 254 257 259 240 224 225 222 228 242 252 265 274 276 274 277 289 280 267 257 245 nan nan nan nan nan nan nan nan nan nan nan nan nan nan nan nan nan nan nan nan nan nan 344 4 8 6 3 359 4 10 11 13 10 5 4 5 3 359 357 356 354 350 347 341 334 335
250 253 249 248 247 244 245 246 245 245 246 247 247 247 250 252 253 253 254 254 257 260 238 220 225 225 224 238 250 265 272 268 263 276 286 274 264 251 nan nan nan nan nan nan nan nan nan nan nan nan nan nan nan nan nan nan nan nan nan nan nan 335 4 12 4 360 359 5 10 11 14 12 11 9 8 6 3 1 360 356 353 350 344 340 335
251 247 246 250 248 239 239 240 243 246 243 240 241 240 240 240 241 243 247 250 253 258 237 226 231 226 224 236 247 262 266 258 257 264 267 263 255 249 nan nan nan nan nan nan nan nan nan nan nan nan 40 nan nan nan nan nan nan nan nan nan nan 344 5 16 6 1 1 6 9 11 13 15 13 13 14 9 5 3 2 360 357 356 347 344 338
252 249 248 249 249 243 238 236 240 242 236 232 232 236 233 233 235 238 240 243 248 250 235 228 236 228 220 229 245 254 258 253 253 259 258 254 252 248 250 nan nan nan nan nan nan nan nan nan nan nan nan nan nan nan nan nan nan nan nan nan nan 355 10 17 4 359 5 7 8 11 15 18 16 15 15 11 8 4 5 5 2 5 356 348 348
253 252 247 245 246 241 237 236 235 235 236 237 236 235 232 228 231 236 236 233 236 242 229 221 227 225 219 225 240 245 246 248 250 256 255 247 250 251 259 nan nan nan nan nan 185 nan nan nan nan nan nan nan nan nan nan nan nan nan nan nan nan nan 5 12 7 359 6 9 10 12 16 19 17 16 14 11 10 8 7 9 7 11 6 358 352
252 252 251 247 245 241 234 233 236 235 236 241 244 246 246 245 242 239 241 238 233 237 234 224 220 216 213 222 233 239 234 241 249 255 255 248 248 253 263 nan nan nan nan nan nan nan nan nan nan nan nan nan nan nan nan nan nan nan nan nan nan 38 nan 3 7 0 2 11 11 14 18 21 19 14 11 11 10 10 10 11 12 14 6 8 nan
254 255 255 253 249 243 239 236 235 233 232 235 234 228 225 226 232 242 245 247 242 237 238 237 221 208 207 216 227 231 225 231 244 250 249 246 249 259 261 nan 241 222 215 199 150 143 nan nan nan nan nan nan nan nan nan nan nan nan nan nan nan 33 6 352 2 358 3 11 13 18 22 21 18 12 8 10 11 11 16 16 15 18 4 1 nan
257 257 257 248 243 241 241 241 239 235 233 234 236 232 227 222 223 221 224 233 244 242 242 243 230 210 203 211 222 223 219 220 234 245 245 244 246 254 256 nan 239 233 228 212 190 186 nan nan nan nan nan nan nan nan nan nan nan 6 28 31 38 20 1 343 351 358 5 12 15 19 21 22 16 10 7 7 10 13 15 21 25 25 12 357 nan
253 255 254 251 244 242 242 242 240 236 234 233 235 236 239 230 225 224 223 221 228 239 244 247 237 218 209 213 217 219 215 215 225 239 243 244 244 243 246 242 240 241 234 220 202 192 222 nan nan nan nan nan 29 nan nan nan nan nan 24 34 32 15 0 355 349 355 359 9 16 17 20 20 10 9 8 7 10 13 14 18 22 22 19 7 353
248 250 253 253 251 249 248 248 244 240 236 235 235 237 237 243 238 233 231 231 227 229 237 242 235 223 218 217 218 217 215 214 221 233 239 243 238 232 239 240 240 241 235 217 209 197 199 nan nan 313 nan nan nan nan nan nan nan nan 19 33 50 20 360 6 351 348 356 5 14 11 16 17 11 7 8 7 10 12 13 15 19 19 17 15 4
246 249 250 252 251 249 249 247 243 240 240 239 238 240 234 236 243 240 233 230 228 226 228 233 233 227 221 216 219 218 213 216 221 228 236 240 233 226 235 242 241 236 230 218 208 209 215 213 nan 208 183 nan nan nan nan nan nan nan 16 40 53 44 352 338 341 340 354 5 13 9 13 15 10 8 6 4 7 10 11 15 15 15 11 11 8
247 251 250 249 248 246 244 244 244 245 243 241 242 246 241 236 237 237 238 231 227 224 217 222 226 227 220 213 215 216 210 212 222 229 234 233 229 226 231 238 242 238 231 221 212 221 232 233 241 nan 6 269 nan nan nan nan nan 348 2 17 49 24 4 327 0 336 356 359 11 15 18 13 11 8 6 2 4 8 11 13 12 10 8 6 3
241 243 248 250 246 243 242 243 246 246 245 244 244 245 246 242 233 229 235 235 235 235 229 223 223 221 220 212 212 219 215 211 221 229 230 229 227 224 229 236 242 242 238 227 216 221 233 231 237 244 269 296 293 328 309 nan nan 326 8 20 36 20 2 354 12 27 11 343 5 15 13 13 8 4 4 4 7 7 10 9 9 8 4 360 358
244 245 246 246 244 246 243 244 246 247 245 247 246 242 237 235 233 231 230 229 226 234 235 227 222 220 218 213 211 225 225 214 219 229 228 226 224 223 228 235 243 246 233 224 225 230 238 241 254 263 296 306 308 289 286 306 nan 339 338 4 37 32 10 357 1 23 19 354 17 18 5 2 6 5 4 7 7 8 8 6 7 7 3 356 355
246 245 247 247 245 244 243 241 241 242 244 246 246 242 240 240 241 239 238 238 236 237 238 234 226 222 219 213 213 227 232 218 216 226 226 224 225 226 228 233 240 246 227 216 229 234 237 243 250 271 287 282 294 280 281 271 313 335 351 4 17 25 13 359 351 21 25 15 24 18 17 7 2 359 360 359 357 1 8 5 1 1 359 354 351
247 246 244 243 242 243 242 242 241 239 239 244 245 242 240 238 242 244 242 243 242 237 242 241 236 230 224 219 215 223 232 222 213 218 222 225 227 228 231 229 235 240 226 218 231 241 243 244 243 252 270 275 274 289 293 288 267 297 343 15 18 25 3 349 2 353 6 25 29 22 23 12 358 348 351 355 353 354 4 3 359 356 355 353 350
246 245 246 244 243 240 239 239 236 236 235 238 244 242 242 240 238 239 238 240 242 240 237 238 235 235 229 219 215 217 223 226 220 214 218 227 228 230 233 231 235 238 225 217 226 229 234 235 242 253 256 272 283 290 293 285 297 294 309 355 16 30 19 2 352 353 351 355 34 42 11 2 4 357 353 352 354 356 356 1 358 354 352 353 352
241 243 245 246 245 241 239 237 237 235 232 235 241 240 239 240 238 237 237 236 241 240 237 235 237 235 231 224 220 221 221 222 223 215 215 225 228 232 235 234 238 239 226 215 219 227 236 243 244 252 263 266 274 276 282 295 290 300 288 327 350 14 28 30 5 344 342 340 35 59 46 7 358 6 355 355 354 358 356 356 356 351 350 351 352
237 242 242 243 243 239 236 236 235 234 232 233 237 239 237 237 237 236 237 237 239 239 237 237 237 239 239 233 225 223 226 223 216 213 214 222 227 233 235 236 241 242 229 218 220 226 235 238 242 250 256 263 265 273 284 285 295 295 309 318 335 338 7 39 36 1 336 337 350 20 27 2 1 349 342 353 359 360 355 353 354 347 346 348 349
224 237 240 242 242 239 236 235 235 232 232 232 235 237 235 236 235 236 238 237 239 241 239 235 238 236 239 241 231 226 226 220 213 207 213 221 227 233 233 236 242 242 233 225 220 229 237 235 233 242 255 261 259 264 265 269 283 290 302 314 336 339 353 13 33 19 351 341 331 347 346 356 1 7 342 347 353 359 357 353 354 348 345 345 347